"Pseudo-MPEC" for P11JCqd

Created 2023 Sep 19 21:22:20 UT using Find_Orb

Click here for an explanation of pseudo-MPECs

 
 Astrometry: 
     P11JCqd  C2023 09 10eCAiJXf@ZFdl8y/=Jkjor?]jI?4b^++bcK)wg)a*uy]^=a!bRpZqF52
     P11JCqd  C2023 09 10-%uLA/4Y:sBAstrometryWDKTf.;J*o-hfoCNredacted;!9.LF3F52
     P11JCqd  C2023 09 10GL/1:hK30)257RD-(cJh2ng-$:.l;4!LOixT[NCrZA%\#[NI2B?)F52
     P11JCqd  C2023 09 10Dn76/Lk\U4ZqBofA4aGqe\K9,]5%7#+V9o\^Qkse;4p[U+CVb_'UF52
     P11JCqd* C2023 09 15Edj$V.(;A0Z;ESbnn2*J='si?Dd?4iuvqj;l!oclickLp;YQW(EiF51
     P11JCqd  C2023 09 152o-9vZ(;[ZTn#OjN?+tthere!!kpZBMbgpN7WA38#(M)b'Q?0Bm)F51
     P11JCqd  C2023 09 15'B$\CIR#EY@fPH#ajjymsLQ5S(Uc$m,DKhAtuEs.?_8A=1-yYZLdF51
     P11JCqd  C2023 09 15pYl%wK[jWoyGCtF]?UuaruLO_:U#04pi1uKUR+J+RmZSc=L?8g7hF51
     P11JCqd  C2023 09 15:q=S2rWv`'fL7'.B,9NSs[=j.6for)u'qiyhwe`T;F5'rkrTyn:lF51
     P11JCqd  C2023 09 15wm@Xd0@Tmp\d95R6TlDomYQ?$IMWrgJo5D'yTTHrjf1%sY?FN2Z%F51
     P11JCqd 3C2023 09 17,^)YpUGt$\_5explanationLaCN3g;ylh!%-!.t5gNp9DK`)v\ifT14
     P11JCqd 3C2023 09 17bPc7Q,qCtr#[M1/cxi7I)[NCSXt5G`QQ#hITt@RHlU*@@m]]tAf/T14
     P11JCqd 3C2023 09 17pcb(]Q)w(4!q^UE$anKRk\ENU(PH1F2s(I$1G,FHW^W#b?q3[#XrT14

Station data:
(F51) Pan-STARRS 1, Haleakala  (N20.707234 W156.255910)  US/Hawaii.
   Observers J. Bulger, T. Lowe, A. Schultz, M. Willman. Measurers K.
   Chambers, S. Chastel, T. de Boer, L. Denneau, J. Fairlamb, H. Flewelling,
   M. Huber, C.-C. Lin, E. Magnier, Y. Ramanjooloo, R. Wainscoat, R. Weryk.
   1.8-m Ritchey-Chrétien + CCD.
(F52) Pan-STARRS 2, Haleakala  (N20.707382 W156.255910)  US/Hawaii.
   Observers J. Bulger, T. Dukes, T. Lowe, A. Schultz, M. Willman. Measurers
   K. Chambers, S. Chastel, T. de Boer, L. Denneau, J. Fairlamb, H.
   Flewelling, M. Huber, C.-C. Lin, E. Magnier, Y. Ramanjooloo, R. Wainscoat,
   R. Weryk. 1.8-m Ritchey-Chrétien + CCD.
(T14) Mauna Kea-UH/Tholen NEO Follow-Up (CFHT)  (N19.825252 W155.468876)
   US/Hawaii.  Observer R. Weryk. 3.6-m Canada-France-Hawaii Telescope.

Orbital elements:  P11JCqd
   Perihelion 2023 Jun 28.85755 +/- 0.0101 TT = 20:34:52 (JD 2460124.35755)
Epoch 2023 Sep 17.0 TT = JDT 2460204.5   Earth MOID: 0.0174   Ma: 0.0152
M  40.36222216 +/- 0.20             (J2000 ecliptic)             AutoNEOCP
n   0.50363099 +/- 0.00263          Peri.  233.08465 +/- 0.08
a   1.56456790 +/- 0.00545          Node    39.47849 +/- 0.11
e   0.3900264 +/- 0.00238           Incl.    3.69112 +/- 0.024
P   1.96/714.80d           H 23.98  G  0.15   U  8.8
q 0.95434498 +/- 0.000399    Q 2.17479082 +/- 0.0113
From 13 observations 2023 Sept. 10-17; mean residual 0".18
Residuals in arcseconds: 
230910 F52  .25+  .46+    230915 F51  .03-  .17-    230917 T14  .00   .00     
230910 F52  .06+  .22-    230915 F51  .22+  .06-    230917 T14  .01+  .01-    
230910 F52  .18-  .08-    230915 F51  .07+  .27+    230917 T14  .02-  .02-    
230910 F52  .14-  .21-    230915 F51  .25+  .21+    
230915 F51  .09-  .10-    230915 F51  .36-  .06+    

Ephemerides (geocentric):
Date (UTC) HH   RA             Dec           delta  r     elong  mag " sig PA
---- --------  ------------   ------------  ------ ------ -----  --- --------
2023 09 19 21  00 06 48.671   -12 11 37.24  .27281 1.2728 168.1 22.3 .403   7
2023 09 19 22  00 06 44.033   -12 11 08.42  .27306 1.2730 168.2 22.3 .409   7
2023 09 19 23  00 06 39.402   -12 10 39.61  .27330 1.2733 168.2 22.3 .415   7
2023 09 20 00  00 06 34.779   -12 10 10.81  .27354 1.2735 168.2 22.3 .422   7
2023 09 20 01  00 06 30.163   -12 09 42.02  .27379 1.2738 168.2 22.3 .428   7
2023 09 20 02  00 06 25.555   -12 09 13.23  .27403 1.2740 168.2 22.3 .434   7
2023 09 20 03  00 06 20.955   -12 08 44.46  .27428 1.2743 168.2 22.3 .441   7
2023 09 20 04  00 06 16.362   -12 08 15.69  .27452 1.2745 168.3 22.3 .447   7
2023 09 20 05  00 06 11.776   -12 07 46.93  .27477 1.2747 168.3 22.3 .454   7
2023 09 20 06  00 06 07.198   -12 07 18.19  .27501 1.2750 168.3 22.3 .460   7
2023 09 20 07  00 06 02.628   -12 06 49.45  .27526 1.2752 168.3 22.3 .467   7
2023 09 20 08  00 05 58.064   -12 06 20.72  .27551 1.2755 168.3 22.3 .474   7
2023 09 20 09  00 05 53.509   -12 05 52.00  .27575 1.2757 168.3 22.3 .480   7
2023 09 20 10  00 05 48.961   -12 05 23.29  .27600 1.2759 168.3 22.3 .487   7
2023 09 20 11  00 05 44.420   -12 04 54.59  .27624 1.2762 168.3 22.3 .494   7
2023 09 20 12  00 05 39.887   -12 04 25.90  .27649 1.2764 168.4 22.3 .501   8
2023 09 20 13  00 05 35.361   -12 03 57.21  .27674 1.2767 168.4 22.3 .508   8
2023 09 20 14  00 05 30.843   -12 03 28.54  .27699 1.2769 168.4 22.3 .515   8
2023 09 20 15  00 05 26.332   -12 02 59.87  .27723 1.2771 168.4 22.3 .522   8
2023 09 20 16  00 05 21.829   -12 02 31.22  .27748 1.2774 168.4 22.3 .529   8
2023 09 20 17  00 05 17.334   -12 02 02.57  .27773 1.2776 168.4 22.3 .536   8
2023 09 20 18  00 05 12.845   -12 01 33.93  .27798 1.2779 168.4 22.3 .543   8
2023 09 20 19  00 05 08.365   -12 01 05.30  .27822 1.2781 168.4 22.3 .550   8
2023 09 20 20  00 05 03.891   -12 00 36.68  .27847 1.2784 168.5 22.3 .558   8
2023 09 20 21  00 04 59.426   -12 00 08.07  .27872 1.2786 168.5 22.3 .565   8
2023 09 20 22  00 04 54.967   -11 59 39.46  .27897 1.2788 168.5 22.3 .572   8
2023 09 20 23  00 04 50.517   -11 59 10.87  .27922 1.2791 168.5 22.3 .580   8
2023 09 21 00  00 04 46.073   -11 58 42.28  .27947 1.2793 168.5 22.3 .587   8
2023 09 21 01  00 04 41.638   -11 58 13.71  .27972 1.2796 168.5 22.4 .595   9
2023 09 21 02  00 04 37.209   -11 57 45.14  .27997 1.2798 168.5 22.4 .603   9
2023 09 21 03  00 04 32.788   -11 57 16.58  .28022 1.2800 168.5 22.4 .610   9
2023 09 21 04  00 04 28.375   -11 56 48.03  .28047 1.2803 168.5 22.4 .618   9
2023 09 21 05  00 04 23.969   -11 56 19.49  .28072 1.2805 168.5 22.4 .626   9
2023 09 21 06  00 04 19.571   -11 55 50.96  .28097 1.2808 168.5 22.4 .634   9
2023 09 21 07  00 04 15.180   -11 55 22.43  .28122 1.2810 168.5 22.4 .641   9
2023 09 21 08  00 04 10.797   -11 54 53.92  .28147 1.2813 168.6 22.4 .649   9
2023 09 21 09  00 04 06.421   -11 54 25.41  .28173 1.2815 168.6 22.4 .657   9
2023 09 21 10  00 04 02.052   -11 53 56.91  .28198 1.2817 168.6 22.4 .665   9
2023 09 21 11  00 03 57.691   -11 53 28.42  .28223 1.2820 168.6 22.4 .674  10
2023 09 21 12  00 03 53.338   -11 52 59.94  .28248 1.2822 168.6 22.4 .682  10
2023 09 21 13  00 03 48.992   -11 52 31.47  .28273 1.2825 168.6 22.4 .690  10
2023 09 21 14  00 03 44.654   -11 52 03.01  .28299 1.2827 168.6 22.4 .698  10
2023 09 21 15  00 03 40.323   -11 51 34.55  .28324 1.2829 168.6 22.4 .707  10
2023 09 21 16  00 03 35.999   -11 51 06.11  .28349 1.2832 168.6 22.4 .715  10
2023 09 21 17  00 03 31.683   -11 50 37.67  .28375 1.2834 168.6 22.4 .724  10
2023 09 21 18  00 03 27.374   -11 50 09.24  .28400 1.2837 168.6 22.4 .732  10
2023 09 21 19  00 03 23.073   -11 49 40.82  .28425 1.2839 168.6 22.4 .741  10
2023 09 21 20  00 03 18.780   -11 49 12.41  .28451 1.2842 168.6 22.4 .749  10